Location: Waco, TX
(31.5480°N, 97.1670°W)
Time: 04:15:00
(UTC-06:00)

ISS - Pass Details

Date: 13 February 2018
Orbit: 402 x 407 km, 51.6° (Epoch: 24 February)

Event Time Altitude Azimuth Distance (km) Brightness Sun altitude
Rises 18:27:05 0° 324° (NW) 2,315 0.3 -3.5°
Reaches altitude 10° 18:29:18 10° 334° (NNW) 1,454 -0.8 -4.0°
Maximum altitude 18:32:17 33° 40° (NE) 703 -3.0 -4.6°
Drops below altitude 10° 18:35:16 10° 107° (ESE) 1,449 -1.6 -5.2°
Enters shadow 18:37:01 - 116° (ESE) 2,128 -0.7 -5.6°
Sets 18:37:27 0° 117° (ESE) 2,306 - -5.7°
